TimeCDT,TemperatureF,Dew PointF,Humidity,Sea Level PressureIn,VisibilityMPH,Wind Direction,Wind SpeedMPH,Gust SpeedMPH,PrecipitationIn,Events,Conditions,WindDirDegrees,DateUTC
12:56 AM,39.9,37.9,93,30.24,10.0,Calm,Calm,-,N/A,,Clear,0,2013-04-20 05:56:00
1:56 AM,37.9,36.0,93,30.24,10.0,Calm,Calm,-,N/A,,Clear,0,2013-04-20 06:56:00
2:56 AM,37.0,35.1,93,30.24,9.0,Calm,Calm,-,N/A,,Clear,0,2013-04-20 07:56:00
3:56 AM,36.0,35.1,97,30.24,8.0,Calm,Calm,-,N/A,,Clear,0,2013-04-20 08:56:00
4:56 AM,37.0,35.1,93,30.24,10.0,Calm,Calm,-,N/A,,Clear,0,2013-04-20 09:56:00
5:56 AM,36.0,34.0,93,30.25,10.0,Calm,Calm,-,N/A,,Clear,0,2013-04-20 10:56:00
6:56 AM,37.0,35.1,93,30.27,10.0,Calm,Calm,-,N/A,,Clear,0,2013-04-20 11:56:00
7:56 AM,43.0,39.0,86,30.29,10.0,Calm,Calm,-,N/A,,Clear,0,2013-04-20 12:56:00
8:56 AM,50.0,39.9,68,30.30,10.0,Calm,Calm,-,N/A,,Clear,0,2013-04-20 13:56:00
9:56 AM,57.9,30.9,36,30.31,10.0,North,6.9,-,N/A,,Clear,10,2013-04-20 14:56:00
10:56 AM,59.0,32.0,36,30.32,10.0,ENE,8.1,-,N/A,,Clear,60,2013-04-20 15:56:00
11:56 AM,62.1,32.0,32,30.31,10.0,NE,9.2,-,N/A,,Clear,50,2013-04-20 16:56:00
12:56 PM,64.0,33.1,31,30.29,10.0,NE,10.4,16.1,N/A,,Clear,40,2013-04-20 17:56:00
1:56 PM,64.9,34.0,32,30.27,10.0,NE,11.5,18.4,N/A,,Clear,40,2013-04-20 18:56:00
2:56 PM,66.0,34.0,30,30.26,10.0,NE,9.2,-,N/A,,Clear,40,2013-04-20 19:56:00
3:56 PM,66.9,35.1,31,30.23,10.0,NNE,10.4,18.4,N/A,,Clear,30,2013-04-20 20:56:00
4:56 PM,66.0,35.1,32,30.22,10.0,ENE,8.1,-,N/A,,Clear,60,2013-04-20 21:56:00
5:56 PM,66.0,35.1,32,30.21,10.0,North,6.9,-,N/A,,Clear,360,2013-04-20 22:56:00
6:56 PM,63.0,37.0,38,30.22,10.0,North,4.6,-,N/A,,Clear,360,2013-04-20 23:56:00
7:56 PM,57.0,41.0,55,30.23,10.0,Calm,Calm,-,N/A,,Clear,0,2013-04-21 00:56:00
8:56 PM,52.0,43.0,71,30.25,10.0,Calm,Calm,-,N/A,,Clear,0,2013-04-21 01:56:00
9:56 PM,46.9,43.0,86,30.27,10.0,Calm,Calm,-,N/A,,Clear,0,2013-04-21 02:56:00
10:56 PM,46.9,42.1,83,30.27,10.0,Calm,Calm,-,N/A,,Clear,0,2013-04-21 03:56:00
11:56 PM,45.0,42.1,90,30.28,10.0,Calm,Calm,-,N/A,,Clear,0,2013-04-21 04:56:00